This is the latest recevied weather packets stored in our database for station/object LU4EGV-13. If no packets are shown the sender has not sent any weather packets the latest 10 day(s).
| Time | Temp. | Humidity | Pressure | Rain* | Wind** | Luminosity | Snow |
|---|---|---|---|---|---|---|---|
| 1788314623 | 18.89° C | 62% | 1017.4 hPa | 0 mm | - | - | - |
| 1788314619 | 19.44° C | 58% | 1017.3 hPa | 0 mm | - | - | - |
| 1788314615 | 20° C | 56% | 1017.4 hPa | 0 mm | - | - | - |
| 1788314611 | 20.56° C | 55% | 1017.2 hPa | 0 mm | - | - | - |
| 1788314607 | 21.11° C | 54% | 1017.1 hPa | 0 mm | - | - | - |
| 1788314603 | 20.56° C | 54% | 1017 hPa | 0 mm | - | - | - |
| 1788314599 | 21.67° C | 52% | 1016.9 hPa | 0 mm | - | - | - |
| 1788314595 | 21.67° C | 51% | 1017.1 hPa | 0 mm | - | - | - |
| 1788314591 | 21.67° C | 51% | 1017 hPa | 0 mm | - | - | - |
| 1788314587 | 22.78° C | 49% | 1017.1 hPa | 0 mm | - | - | - |
| 1788314583 | 22.78° C | 49% | 1016.8 hPa | 0 mm | - | - | - |
| 1788314579 | 22.78° C | 48% | 1016.6 hPa | 0 mm | - | - | - |
| 1788314575 | 22.78° C | 49% | 1016.6 hPa | 0 mm | - | - | - |
| 1788314571 | 23.33° C | 43% | 1016.5 hPa | 0 mm | - | - | - |
| 1788314567 | 23.33° C | 33% | 1016.3 hPa | 0 mm | - | - | - |
| 1788314563 | 23.89° C | 34% | 1016.5 hPa | 0 mm | - | - | - |
| 1788314559 | 22.78° C | 45% | 1016.6 hPa | 0 mm | - | - | - |
| 1788314555 | 21.67° C | 45% | 1016.6 hPa | 0 mm | - | - | - |
| 1788314551 | 21.67° C | 49% | 1016.8 hPa | 0 mm | - | - | - |
| 1788314547 | 21.67° C | 51% | 1016.6 hPa | 0 mm | - | - | - |
| 1788314543 | 21.11° C | 50% | 1017 hPa | 0 mm | - | - | - |
| 1788314538 | 21.67° C | 50% | 1017.1 hPa | 0 mm | - | - | - |
| 1788314534 | 21.11° C | 50% | 1017.1 hPa | 0 mm | - | - | - |
| 1788314530 | 20.56° C | 54% | 1017.1 hPa | 0 mm | - | - | - |
| 1788314526 | 20° C | 55% | 1017.3 hPa | 0 mm | - | - | - |
* Rain latest hour (hover to see other rain measurements)
** Current wind speed in m/s (hover to see current wind gust speed)